| time (UTC) | temp F | wind direction | speed MPH | gust MPH | rain 1hr in | rain 24hr in | rain mn in | humidity % | barometer mb |
| 20260906150020 | 83 | 73 | 6.0 | 13.0 | 0.00 | 0.00 | 0.00 | 81 | 1020.4 |
| 20260906144515 | 83 | 79 | 7.0 | 11.0 | 0.00 | 0.00 | 0.00 | 82 | 1020.3 |
| 20260906143014 | 83 | 61 | 8.0 | 14.0 | 0.00 | 0.00 | 0.00 | 83 | 1020.3 |
| 20260906141512 | 83 | 39 | 8.0 | 13.0 | 0.00 | 0.00 | 0.00 | 83 | 1020.4 |
| 20260906140012 | 83 | 60 | 8.0 | 12.0 | 0.00 | 0.00 | 0.00 | 83 | 1020.5 |
| 20260906134513 | 83 | 82 | 6.0 | 10.0 | 0.00 | 0.00 | 0.00 | 83 | 1020.5 |
| 20260906133011 | 83 | 62 | 7.0 | 14.0 | 0.00 | 0.00 | 0.00 | 82 | 1020.5 |
| 20260906131515 | 83 | 45 | 6.0 | 13.0 | 0.00 | 0.00 | 0.00 | 82 | 1020.7 |
| 20260906130025 | 83 | 24 | 8.0 | 15.0 | 0.00 | 0.00 | 0.00 | 83 | 1020.8 |
| 20260906124511 | 83 | 48 | 7.0 | 13.0 | 0.00 | 0.00 | 0.00 | 83 | 1020.8 |
| 20260906123014 | 83 | 51 | 10.0 | 14.0 | 0.00 | 0.00 | 0.00 | 82 | 1020.8 |
| 20260906121509 | 83 | 65 | 7.0 | 14.0 | 0.00 | 0.00 | 0.00 | 83 | 1020.8 |
| 20260906120008 | 83 | 81 | 9.0 | 14.0 | 0.00 | 0.00 | 0.00 | 83 | 1020.8 |
| 20260906114508 | 83 | 64 | 10.0 | 17.0 | 0.00 | 0.00 | 0.00 | 84 | 1020.8 |
| 20260906113006 | 83 | 40 | 10.0 | 14.0 | 0.00 | 0.00 | 0.00 | 83 | 1021.0 |
| 20260906111513 | 83 | 61 | 8.0 | 14.0 | 0.00 | 0.00 | 0.00 | 83 | 1020.9 |
| 20260906110012 | 83 | 36 | 9.0 | 14.0 | 0.00 | 0.00 | 0.00 | 83 | 1021.0 |
| 20260906104511 | 83 | 25 | 9.0 | 16.0 | 0.00 | 0.00 | 0.00 | 84 | 1020.9 |
| 20260906103004 | 83 | 44 | 9.0 | 16.0 | 0.00 | 0.00 | 0.00 | 84 | 1020.9 |
| 20260906101502 | 83 | 51 | 9.0 | 15.0 | 0.00 | 0.00 | 0.00 | 83 | 1020.9 |
| 20260906100002 | 83 | 82 | 9.0 | 14.0 | 0.00 | 0.00 | 0.00 | 83 | 1020.8 |
| 20260906094559 | 83 | 33 | 10.0 | 17.0 | 0.00 | 0.00 | 0.00 | 82 | 1020.8 |
| 20260906093115 | 83 | 37 | 6.0 | 16.0 | 0.00 | 0.00 | 0.00 | 80 | 1020.9 |
| 20260906091558 | 83 | 2 | 11.0 | 17.0 | 0.00 | 0.00 | 0.00 | 79 | 1020.9 |
| 20260906090104 | 83 | 42 | 8.0 | 20.0 | 0.00 | 0.00 | 0.00 | 78 | 1020.9 |
| 20260906084554 | 83 | 34 | 11.0 | 17.0 | 0.00 | 0.00 | 0.00 | 77 | 1020.8 |
| 20260906083053 | 83 | 4 | 10.0 | 18.0 | 0.00 | 0.00 | 0.00 | 76 | 1020.7 |
| 20260906081554 | 83 | 42 | 11.0 | 17.0 | 0.00 | 0.00 | 0.00 | 74 | 1020.8 |
| 20260906080049 | 83 | 37 | 7.0 | 15.0 | 0.00 | 0.00 | 0.00 | 71 | 1020.7 |
| 20260906074546 | 83 | 36 | 8.0 | 18.0 | 0.00 | 0.00 | 0.00 | 71 | 1020.5 |
| 20260906073044 | 83 | 36 | 7.0 | 17.0 | 0.00 | 0.00 | 0.00 | 69 | 1020.4 |
| 20260906071552 | 83 | 357 | 10.0 | 19.0 | 0.00 | 0.00 | 0.00 | 66 | 1020.2 |
| 20260906070039 | 82 | 11 | 11.0 | 19.0 | 0.00 | 0.00 | 0.00 | 66 | 1020.0 |
| 20260906064540 | 83 | 28 | 6.0 | 10.0 | 0.00 | 0.00 | 0.00 | 63 | 1019.8 |
| 20260906063032 | 82 | 9 | 7.0 | 14.0 | 0.00 | 0.00 | 0.00 | 55 | 1019.7 |
| 20260906061531 | 81 | 351 | 4.0 | 9.0 | 0.00 | 0.00 | 0.00 | 48 | 1019.6 |
| 20260906060030 | 80 | 314 | 3.0 | 7.0 | 0.00 | 0.00 | 0.00 | 45 | 1019.5 |
| 20260906054527 | 79 | 319 | 2.0 | 6.0 | 0.00 | 0.00 | 0.00 | 44 | 1019.4 |
| 20260906053029 | 79 | 293 | 0.0 | 3.0 | 0.00 | 0.00 | 0.00 | 43 | 1019.3 |
| 20260906051531 | 78 | 283 | 0.0 | 3.0 | 0.00 | 0.00 | 0.00 | 45 | 1019.2 |
| 20260906050047 | 78 | 283 | 0.0 | 3.0 | 0.00 | 0.00 | 0.00 | 45 | 1019.1 |
| 20260906044522 | 77 | 305 | 1.0 | 4.0 | 0.00 | 0.00 | 0.00 | 46 | 1018.9 |
| 20260906043022 | 76 | 252 | 1.0 | 4.0 | 0.00 | 0.00 | 0.00 | 47 | 1018.9 |
| 20260906041519 | 77 | 267 | 1.0 | 3.0 | 0.00 | 0.00 | 0.00 | 47 | 1018.9 |
| 20260906040119 | 77 | 269 | 1.0 | 3.0 | 0.00 | 0.00 | 0.00 | 47 | 1018.7 |
| 20260906034515 | 77 | 274 | 1.0 | 3.0 | 0.00 | 0.00 | 0.00 | 48 | 1018.6 |
| 20260906033019 | 77 | 209 | 1.0 | 3.0 | 0.00 | 0.00 | 0.00 | 48 | 1018.5 |
| 20260906031514 | 77 | 285 | 0.0 | 2.0 | 0.00 | 0.00 | 0.00 | 48 | 1018.5 |
| 20260906030010 | 78 | 275 | 0.0 | 2.0 | 0.00 | 0.00 | 0.00 | 48 | 1018.4 |
| 20260906024510 | 78 | 274 | 0.0 | 3.0 | 0.00 | 0.00 | 0.00 | 48 | 1018.4 |
| 20260906023008 | 78 | 260 | 1.0 | 3.0 | 0.00 | 0.00 | 0.00 | 48 | 1018.3 |
| 20260906021504 | 79 | 267 | 2.0 | 4.0 | 0.00 | 0.00 | 0.00 | 47 | 1018.3 |
| 20260906020004 | 79 | 288 | 1.0 | 3.0 | 0.00 | 0.00 | 0.00 | 47 | 1018.2 |
| 20260906014506 | 80 | 280 | 0.0 | 4.0 | 0.00 | 0.00 | 0.00 | 47 | 1018.4 |
| 20260906013006 | 80 | 267 | 1.0 | 4.0 | 0.00 | 0.00 | 0.00 | 46 | 1018.3 |
| 20260906011502 | 80 | 243 | 2.0 | 7.0 | 0.00 | 0.00 | 0.00 | 46 | 1018.3 |
| 20260906010002 | 80 | 275 | 0.0 | 4.0 | 0.00 | 0.00 | 0.00 | 46 | 1018.3 |
| 20260906004603 | 80 | 274 | 0.0 | 4.0 | 0.00 | 0.00 | 0.00 | 46 | 1018.4 |
| 20260906003108 | 79 | 269 | 2.0 | 5.0 | 0.00 | 0.00 | 0.00 | 45 | 1018.2 |
| 20260906001559 | 79 | 287 | 2.0 | 5.0 | 0.00 | 0.00 | 0.00 | 45 | 1018.2 |
| 20260906000056 | 79 | 248 | 2.0 | 6.0 | 0.00 | 0.00 | 0.00 | 44 | 1018.3 |
| 20260905234603 | 80 | 269 | 1.0 | 5.0 | 0.00 | 0.00 | 0.00 | 42 | 1018.4 |
| 20260905233049 | 80 | 269 | 2.0 | 5.0 | 0.00 | 0.00 | 0.00 | 41 | 1018.5 |
| 20260905231546 | 80 | 272 | 3.0 | 7.0 | 0.00 | 0.00 | 0.00 | 40 | 1018.4 |
| 20260905230050 | 80 | 210 | 4.0 | 7.0 | 0.00 | 0.00 | 0.00 | 40 | 1018.5 |
| 20260905224544 | 81 | 274 | 2.0 | 7.0 | 0.00 | 0.00 | 0.00 | 39 | 1018.6 |
| 20260905223041 | 82 | 265 | 3.0 | 7.0 | 0.00 | 0.00 | 0.00 | 38 | 1018.5 |
| 20260905221538 | 82 | 296 | 2.0 | 6.0 | 0.00 | 0.00 | 0.00 | 37 | 1018.3 |
| 20260905220034 | 83 | 237 | 3.0 | 7.0 | 0.00 | 0.00 | 0.00 | 36 | 1018.3 |
| 20260905214533 | 83 | 279 | 3.0 | 8.0 | 0.00 | 0.00 | 0.00 | 35 | 1018.3 |
| 20260905213032 | 83 | 274 | 3.0 | 8.0 | 0.00 | 0.00 | 0.00 | 36 | 1018.3 |
| 20260905211531 | 83 | 238 | 3.0 | 7.0 | 0.00 | 0.00 | 0.00 | 36 | 1018.3 |
| 20260905210041 | 83 | 270 | 3.0 | 6.0 | 0.00 | 0.00 | 0.00 | 37 | 1018.4 |
| 20260905204531 | 83 | 283 | 3.0 | 10.0 | 0.00 | 0.00 | 0.00 | 38 | 1018.3 |
| 20260905203030 | 83 | 191 | 2.0 | 6.0 | 0.00 | 0.00 | 0.00 | 39 | 1018.3 |
| 20260905201536 | 84 | 302 | 1.0 | 5.0 | 0.00 | 0.00 | 0.00 | 38 | 1018.2 |
| 20260905200040 | 86 | 222 | 2.0 | 5.0 | 0.00 | 0.00 | 0.00 | 36 | 1018.3 |
| 20260905194527 | 87 | 224 | 3.0 | 8.0 | 0.00 | 0.00 | 0.00 | 36 | 1018.3 |
| 20260905193030 | 87 | 219 | 4.0 | 7.0 | 0.00 | 0.00 | 0.00 | 36 | 1018.2 |
| 20260905191527 | 88 | 269 | 6.0 | 11.0 | 0.00 | 0.00 | 0.00 | 36 | 1018.1 |
| 20260905190027 | 88 | 259 | 6.0 | 12.0 | 0.00 | 0.00 | 0.00 | 35 | 1018.1 |
| 20260905184534 | 89 | 271 | 5.0 | 10.0 | 0.00 | 0.00 | 0.00 | 36 | 1018.0 |
| 20260905183028 | 89 | 281 | 4.0 | 8.0 | 0.00 | 0.00 | 0.00 | 36 | 1018.1 |
| 20260905181525 | 89 | 191 | 3.0 | 7.0 | 0.00 | 0.00 | 0.00 | 37 | 1017.8 |
| 20260905180024 | 89 | 171 | 3.0 | 8.0 | 0.00 | 0.00 | 0.00 | 37 | 1017.8 |
| 20260905174532 | 90 | 165 | 4.0 | 8.0 | 0.00 | 0.00 | 0.00 | 38 | 1017.4 |
| 20260905173025 | 90 | 185 | 5.0 | 8.0 | 0.00 | 0.00 | 0.00 | 38 | 1017.3 |
| 20260905171523 | 90 | 186 | 4.0 | 9.0 | 0.00 | 0.00 | 0.00 | 38 | 1017.3 |
| 20260905170022 | 90 | 191 | 4.0 | 8.0 | 0.00 | 0.00 | 0.00 | 44 | 1017.2 |
| 20260905164521 | 89 | 182 | 2.0 | 5.0 | 0.00 | 0.00 | 0.00 | 42 | 1017.2 |
| 20260905163020 | 90 | 127 | 3.0 | 6.0 | 0.00 | 0.00 | 0.00 | 53 | 1017.1 |
| 20260905161519 | 90 | 167 | 4.0 | 10.0 | 0.00 | 0.00 | 0.00 | 47 | 1017.1 |
| 20260905160036 | 89 | 179 | 6.0 | 11.0 | 0.00 | 0.00 | 0.00 | 45 | 1017.1 |
| 20260905154516 | 89 | 153 | 5.0 | 11.0 | 0.00 | 0.00 | 0.00 | 51 | 1017.1 |
| 20260905153016 | 89 | 130 | 7.0 | 13.0 | 0.00 | 0.00 | 0.00 | 47 | 1017.1 |
| 20260905151515 | 88 | 172 | 5.0 | 12.0 | 0.00 | 0.00 | 0.00 | 51 | 1017.2 |